This demonstration page uses our WeatherBlox Daily Observations layout. Learn more.

Left ArrowRight Arrow

Hourly Observations for March 14, 2015

Temp ( °F °C ) Dew Point ( °F °C ) Humidity (%) Winds ( mph kmh ) Pressure ( in mb ) Visibility ( mi km ) Precip ( " mm )
6:30 am 06:30 Cloudy with Light Rain 48 9 46 8 94 94 N N/A 29.97 1015 1 1 N/A
6:59 am 06:59 Cloudy with Light Rain 48 9 46 8 94 94 N N/A 29.97 1015 1 2 N/A
7:47 am 07:47 Cloudy with Mist and Fog 48 9 46 8 94 94 N N/A 29.97 1015 1 2 N/A
8:25 am 08:25 Cloudy with Mist and Fog 48 9 46 8 94 94 N N/A 30.00 1016 1 2 N/A
8:51 am 08:51 Cloudy with Fog 48 9 46 8 94 94 N N/A 30.00 1016 1 1 N/A
9:29 am 09:29 Partly Cloudy with Mist and Fog 48 9 46 8 94 94 N N/A 30.00 1016 1 2 N/A
9:59 am 09:59 Cloudy with Mist and Fog 50 10 48 9 94 94 N N/A 30.00 1016 5 8 N/A
10:27 am 10:27 Cloudy 50 10 48 9 94 94 NW 5 7 30.00 1016 7 11 N/A
10:58 am 10:58 Cloudy 50 10 50 10 100 100 NNW 12 19 30.00 1016 7 11 N/A
11:59 am 11:59 Cloudy with Mist and Fog 50 10 50 10 100 100 NNW 12 19 30.03 1017 5 8 N/A
12:23 pm 12:23 Cloudy 52 11 50 10 94 94 NNW 12 19 30.03 1017 7 11 N/A
12:58 pm 12:58 Cloudy 52 11 50 10 94 94 NNW 12 19 30.03 1017 8 13 N/A
1:53 pm 13:53 Partly Cloudy 55 13 48 9 77 77 NW 9 15 30.03 1017 10 16 N/A
2:52 pm 14:52 Partly Cloudy 57 14 46 8 67 67 NW 13 20 30.00 1016 10 16 N/A
3:49 pm 15:49 Partly Cloudy 59 15 43 6 55 55 NNW 13 20 30.00 1016 10 16 N/A
4:52 pm 16:52 Mostly Cloudy 59 15 41 5 51 51 NW 16 26 30.03 1017 10 16 N/A
5:45 pm 17:45 Mostly Cloudy 57 14 39 4 51 51 NNW 14 22 30.03 1017 10 16 N/A
6:59 pm 18:59 Partly Cloudy 54 12 39 4 58 58 NW 8 13 30.06 1018 10 16 N/A
7:45 pm 19:45 Partly Cloudy 50 10 39 4 67 67 WNW 5 7 30.06 1018 10 16 N/A
8:59 pm 20:59 Partly Cloudy 48 9 39 4 71 71 WNW 5 7 30.09 1019 10 16 N/A
9:51 pm 21:51 Partly Cloudy 48 9 37 3 66 66 WNW 7 11 30.12 1020 10 16 N/A

Powered by AerisWeather